Other Public Products
Issued by NWS Grand Forks, ND

Home | Current Version | Previous Version | Graphics & Text | Print | Product List | Glossary On
Versions: 1 2 3 4 5 6 7 8 9 10 11 12 13 14 15 16 17 18 19 20 21 22 23 24 25 26 27 28 29 30 31 32 33 34 35 36 37 38 39 40 41 42 43 44 45 46 47 48 49 50
000
FPUS83 KFGF 300431
OPUFGF
PRAIRIE TO PINES WEATHER ROUNDUP
NATIONAL WEATHER SERVICE EASTERN NORTH DAKOTA/GRAND FORKS ND
1100 PM CDT SAT AUG 29 2015

 **SATELLITE DATA USED TO AUGMENT SKY COVER AT AUTOMATED STATIONS**
 *****  WEATHER ACROSS EASTERN NORTH DAKOTA  *****

CITY           SKY/WX    TMP DP  RH WIND       PRES   REMARKS
GRAND FORKS    PTCLDY    71  68  90 S13       29.80F
GRAND FORKS AF CLEAR     72  69  90 S10       29.81S
GRAND CITY NWS   N/A     70 N/A N/A S9          N/A
BUXTON         NOT AVBL
DEVILS LAKE    PTCLDY    75  64  69 S15       29.79S
FARGO          PTCLDY    71  65  81 S14       29.86F
WAHPETON ARPT  CLEAR     64  61  88 S8        29.90F
$$

 *****  WEATHER ACROSS CENTRAL AND WESTERN NORTH DAKOTA  *****

CITY           SKY/WX    TMP DP  RH WIND       PRES   REMARKS
JAMESTOWN      CLEAR     72  69  90 S12       29.85F
BISMARCK       PTCLDY    71  61  70 SE6       29.82F
MINOT          CLOUDY    70  58  65 CALM      29.75F HAZE
MINOT AFB      MOCLDY    71  60  68 NE5       29.75F
GARRISON         N/A     77  63  61 S8        29.78F
WILLISTON      MOCLDY    71  53  52 N5        29.75F HAZE
DICKINSON      CLOUDY    71  51  49 S7        29.81F
HETTINGER      MOCLDY    74  54  49 SE9       29.87F
$$

 *****  OTHER OBSERVATIONS NORTHEAST NORTH DAKOTA  *****

CITY           SKY/WX    TMP DP  RH WIND       PRES   REMARKS
WALHALLA       FAIR      73  73 100 MISG      29.76F
LANGDON        FAIR      70  68  94 SW9       29.81F
CAVALIER       FAIR      68  68 100 S7        29.78S
GRAFTON        FAIR      66  66 100 SE5       29.80S
CANDO          FAIR      68  66  94 S6        29.80S
FORT TOTTEN      N/A     74  71  88 S9        29.95S
ROLLA          CLOUDY    68  59  73 SW9       29.81S
RUGBY          FAIR      73  59  60 S9        29.78F HAZE
 ***** THE ABOVE OBSERVATIONS ARE NON NWS ARE NOT QUALITY
        CONTROLLED AND MAY MIS-REPORT RAIN FOR SNOW...
$$

 *****  OTHER OBSERVATIONS SOUTHEAST NORTH DAKOTA *****

CITY           SKY/WX    TMP DP  RH WIND       PRES   REMARKS
COOPERSTOWN    NOT AVBL
VALLEY CITY    CLOUDY    72  72 100 S12       29.86S
OAKES            N/A     68  68 100 S12       29.88S
GWINNER          N/A     72  70  94 S10       29.88S
SHEYENNE NWR     N/A     69  67  93 SE6       29.95S
BUFFALO        NOT AVBL
WYNDMERE         N/A     66  64  94 SE3         N/A
 ***** THE ABOVE OBSERVATIONS ARE NON NWS ARE NOT QUALITY
       CONTROLLED AND MAY MIS-REPORT RAIN FOR SNOW...
$$

  *****  WEATHER ACROSS NORTHERN MINNESOTA  *****

CITY           SKY/WX    TMP DP  RH WIND       PRES   REMARKS
FLAG ISLAND    CLEAR     68  66  94 S12       29.82S
WARROAD        PTCLDY    70  66  88 S8        29.82F
ROSEAU         PTCLDY    70  64  83 S9        29.83S
HALLOCK        PTCLDY    68  66  94 S9        29.79F
THF RVR FALLS  PTCLDY   N/A N/A N/A S10       29.85S
HALSTAD        NOT AVBL
FOSSTON        CLEAR     64  61  88 S9        29.89F
BAUDETTE       PTCLDY    67  65  93 S8        29.86F
WASKISH        PTCLDY    66  64  94 S6        29.89F
CROOKSTON      CLEAR     70  64  83 S14       29.84F
$$
  *****  WEATHER ACROSS CENTRAL AND WEST MINNESOTA  *****

CITY           SKY/WX    TMP DP  RH WIND       PRES   REMARKS
BEMIDJI        PTCLDY    66  61  86 S6        29.92F
PARK RAPIDS    FAIR      66  61  84 S8        29.95F
WADENA         FAIR      63  61  94 S7        29.95F
DETROIT LAKES  PTCLDY    66  63  88 S12       29.93F
MOORHEAD       PTCLDY    68  64  88 S15       29.88S
FERGUS FALLS   PTCLDY    66  66 100 S10       29.92S
ELBOW LAKE     FAIR      65  64  95 S10       29.93F
MORRIS MN      CLEAR     64  64 100 S10       29.93F
STAPLES        CLEAR     63  61  94 S7        29.96F
WHEATON        CLEAR     64  63  94 S10       29.92F
$$
  *****  WEATHER ELSEWHERE ACROSS MINNESOTA  *****

CITY           SKY/WX    TMP DP  RH WIND       PRES   REMARKS
DULUTH         PTCLDY    65  61  87 SW10      29.98F
INTRNTL FALLS  MOCLDY    67  64  90 VRB5      29.90F
ELY            CLEAR     63  61  94 S3        29.97S
CLOQUET        PTCLDY    64  61  88 SW5       29.99S
BRAINERD       PTCLDY    62  61  96 S5        29.99R
HIBBING        MOCLDY    64  61  90 VRB3      29.98R
ALEXANDRIA     CLEAR     65  63  93 S9        29.98F
SAINT CLOUD    CLEAR     61  60  97 S7        29.99S
MINNEAPOLIS    MOCLDY    68  63  84 S5        30.01F
$$

  *****  WEATHER ACROSS SOUTH DAKOTA  *****

CITY           SKY/WX    TMP DP  RH WIND       PRES   REMARKS
SIOUX FALLS    PTCLDY    65  62  90 S8        30.01S
BROOKINGS      CLEAR     64  61  88 S9        30.01S
WATERTOWN      CLEAR     65  62  90 S12       29.95F
HURON          CLEAR     68  65  90 S13       29.92F
SISSETON         N/A     67  64  90 S9        29.90F
ABERDEEN       CLEAR     69  66  90 S12       29.89F
MITCHELL       CLEAR     69  66  90 SE9       29.96S
PIERRE         CLEAR     77  61  57 S14       29.87S
MOBRIDGE       CLEAR     73  69  87 SE9       29.84F
RAPID CITY     PTCLDY    71  47  42 S5        29.93S
$$

  *****  SOME WEATHER IN NEARBY STATES *****

CITY           SKY/WX    TMP DP  RH WIND       PRES   REMARKS
GLASGOW MT     MOCLDY    79  46  31 E15       29.69S HAZE
GREAT FALLS MT MOCLDY    69  51  52 SW12      29.77R
CHEYENNE WY    PTCLDY    71  42  35 S12G23    30.19S
SCOTTSBLUFF NE CLEAR     65  49  56 E9        30.04S
OMAHA NE       CLOUDY    68  64  87 SE7       30.05F
DES MOINES IA  MOCLDY    68  62  81 SE3       30.04F
DAVENPORT IA   FOG       61  60  97 CALM      30.05R VSB 1/4
CHICAGO IL     CLOUDY    67  65  93 N6        30.03S FOG
EAU CLAIRE WI  CLEAR     63  60  90 S7        30.04S
LA CROSSE WI   CLEAR     64  61  90 E5        30.04S
$$

  *****  SOME NATIONAL WEATHER *****

CITY           SKY/WX    TMP DP  RH WIND       PRES   REMARKS
LA GUARDIA NY  MOCLDY    76  60  57 SW10      30.10S
RALEIGH NC     CLOUDY    71  62  73 CALM      30.16S
ATLANTA GA     CLOUDY    74  63  68 E6        30.14F
NEW ORLEANS LA PTCLDY    79  67  66 S7        30.03R
OKLAHOMA CITY  MOCLDY    77  65  66 NE13      30.00R
ALBUQUERQUE NM PTCLDY    77  46  33 E13       30.22R
SALT LAKE CITY MOCLDY    86  44  23 S16       29.88R
LOS ANGELES CA PTCLDY    76  66  71 W17       29.84R
BOISE ID       MOCLDY    79  47  32 NW13G24   29.82R
SEATTLE WA     LGT RAIN  57  55  94 W9        29.78R FOG
$$

*** WEATHER ACROSS MANITOBA...SASKATCHEWAN AND ONTARIO ***
                ***ONTARIO***

CITY           SKY/WX    TMP DP  RH WIND       PRES   REMARKS
GERALDTON      PTCLDY    59  59 100 SW5       29.94S
THUNDER BAY    PTCLDY    55  55 100 CALM      29.96S
SIOUX LOOKOUT  CLOUDY    66  63  88 S7        29.88F
TORONTO        MOCLDY    68  59  73 E3        30.08F
BIG TROUT LK   MOCLDY    68  59  73 SW5       29.68F
PICKLE LAKE    NOT AVBL
DRYDEN         CLOUDY    66  64  94 S12       29.87F
KENORA         PTCLDY    68  66  94 S14G20    29.83F
$$
                *** MANITOBA***

CITY           SKY/WX    TMP DP  RH WIND       PRES   REMARKS
BRANDON        PTCLDY    63  57  82 NW3       29.76S SMOKE
DAUPHIN        CLEAR     63  57  82 SW6       29.71S
ISLAND LAKE    MOCLDY    72  59  64 SW9       29.59F
PILOT MOUND      N/A     64  61  88 S8          N/A
THE PAS        PTCLDY    68  63  83 NW9       29.64R
THOMPSON       PTCLDY    59  55  88 NE12G17   29.62R
WINNIPEG       MOCLDY    72  70  94 S17       29.75S
LYNN LAKE      MOCLDY    55  54  94 MISG      29.72R
CHURCHILL      DRIZZLE   48  46  93 NE18G25   29.77S
$$
                ***SASKATCHEWAN***

CITY           SKY/WX    TMP DP  RH WIND       PRES   REMARKS
ESTEVAN        SMOKE     68  55  64 E6        29.77S VSB 1
KINDERSLEY     CLOUDY    73  48  40 SE16      29.59F
LLOYDMINSTER   MOCLDY    68  50  52 SE16      29.54F
PRINCE ALBERT  MOCLDY    59  59 100 E5        29.65F
REGINA         CLOUDY    68  54  60 SE9       29.74S SMOKE
YORKTON        PTCLDY    68  57  68 SW7       29.74S



USA.gov is the U.S. government's official web portal to all federal, state and local government web resources and services.